| time (UTC) | temp C | wind direction | speed KPH | gust KPH | rain 1hr cm | rain 24hr cm | rain mn cm | humidity % | barometer mb |
| 20260505041518 | 8 | 69 | 11.3 | 19.3 | 0.00 | 0.00 | 0.00 | 76 | 1004.6 |
| 20260505040017 | 8 | 60 | 6.4 | 14.5 | 0.00 | 0.00 | 0.00 | 75 | 1005.1 |
| 20260505034515 | 9 | 49 | 8.0 | 17.7 | 0.00 | 0.00 | 0.00 | 72 | 1005.2 |
| 20260505033014 | 9 | 27 | 11.3 | 19.3 | 0.00 | 0.00 | 0.00 | 71 | 1005.3 |
| 20260505031533 | 10 | 5 | 16.1 | 20.9 | 0.00 | 0.00 | 0.00 | 69 | 1005.2 |
| 20260505030013 | 10 | 12 | 20.9 | 32.2 | 0.00 | 0.00 | 0.00 | 65 | 1004.6 |
| 20260505024519 | 10 | 339 | 11.3 | 17.7 | 0.00 | 0.00 | 0.00 | 65 | 1004.4 |
| 20260505023012 | 10 | 340 | 14.5 | 33.8 | 0.00 | 0.00 | 0.00 | 65 | 1004.3 |
| 20260505021513 | 11 | 306 | 16.1 | 24.1 | 0.00 | 0.00 | 0.00 | 59 | 1004.4 |
| 20260505020020 | 12 | 355 | 14.5 | 22.5 | 0.00 | 0.00 | 0.00 | 55 | 1004.1 |
| 20260505014507 | 12 | 355 | 19.3 | 32.2 | 0.00 | 0.00 | 0.00 | 54 | 1003.6 |
| 20260505013006 | 12 | 5 | 25.7 | 37.0 | 0.00 | 0.00 | 0.00 | 53 | 1002.9 |
| 20260505011506 | 13 | 11 | 25.7 | 37.0 | 0.00 | 0.00 | 0.00 | 51 | 1002.5 |
| 20260505010006 | 13 | 5 | 22.5 | 30.6 | 0.00 | 0.00 | 0.00 | 47 | 1002.4 |
| 20260505004508 | 14 | 344 | 20.9 | 33.8 | 0.00 | 0.00 | 0.00 | 45 | 1002.3 |
| 20260505003003 | 14 | 343 | 20.9 | 30.6 | 0.00 | 0.00 | 0.00 | 43 | 1002.2 |
| 20260505001503 | 15 | 11 | 16.1 | 25.7 | 0.00 | 0.00 | 0.00 | 42 | 1002.5 |
| 20260505000004 | 15 | 5 | 9.7 | 27.4 | 0.00 | 0.00 | 0.00 | 38 | 1002.5 |
| 20260504234500 | 15 | 64 | 25.7 | 40.2 | 0.00 | 0.00 | 0.00 | 36 | 1002.3 |
| 20260504233106 | 16 | 338 | 9.7 | 19.3 | 0.00 | 0.00 | 0.00 | 35 | 1002.2 |
| 20260504231602 | 16 | 317 | 11.3 | 24.1 | 0.00 | 0.00 | 0.00 | 33 | 1001.7 |
| 20260504230108 | 17 | 340 | 11.3 | 22.5 | 0.00 | 0.00 | 0.00 | 32 | 1001.4 |
| 20260504224559 | 18 | 10 | 3.2 | 8.0 | 0.00 | 0.00 | 0.00 | 30 | 1001.1 |
| 20260504223104 | 18 | 231 | 3.2 | 12.9 | 0.00 | 0.00 | 0.00 | 32 | 1001.3 |
| 20260504221605 | 18 | 253 | 9.7 | 20.9 | 0.00 | 0.00 | 0.00 | 30 | 1001.2 |
| 20260504220059 | 18 | 315 | 8.0 | 22.5 | 0.00 | 0.00 | 0.00 | 30 | 1001.1 |
| 20260504214558 | 18 | 333 | 6.4 | 19.3 | 0.00 | 0.00 | 0.00 | 30 | 1001.1 |
| 20260504213055 | 18 | 331 | 14.5 | 38.6 | 0.00 | 0.00 | 0.00 | 29 | 1001.1 |
| 20260504211558 | 18 | 355 | 22.5 | 45.1 | 0.00 | 0.00 | 0.00 | 31 | 1001.1 |
| 20260504210055 | 18 | 44 | 16.1 | 27.4 | 0.00 | 0.00 | 0.00 | 28 | 1001.1 |
| 20260504204555 | 19 | 43 | 8.0 | 25.7 | 0.00 | 0.00 | 0.00 | 28 | 1001.0 |
| 20260504203101 | 20 | 26 | 9.7 | 33.8 | 0.00 | 0.00 | 0.00 | 28 | 1001.2 |
| 20260504201550 | 21 | 28 | 14.5 | 24.1 | 0.00 | 0.00 | 0.00 | 28 | 1001.4 |
| 20260504200047 | 20 | 287 | 8.0 | 20.9 | 0.00 | 0.00 | 0.00 | 28 | 1001.7 |
| 20260504194545 | 19 | 319 | 17.7 | 24.1 | 0.00 | 0.00 | 0.00 | 30 | 1001.8 |
| 20260504193044 | 19 | 110 | 12.9 | 27.4 | 0.00 | 0.00 | 0.00 | 28 | 1002.0 |
| 20260504191544 | 18 | 51 | 14.5 | 29.0 | 0.00 | 0.00 | 0.00 | 28 | 1002.0 |
| 20260504190043 | 18 | 284 | 8.0 | 27.4 | 0.00 | 0.00 | 0.00 | 28 | 1002.1 |
| 20260504184542 | 18 | 348 | 12.9 | 19.3 | 0.00 | 0.00 | 0.00 | 26 | 1002.1 |
| 20260504183041 | 18 | 90 | 16.1 | 20.9 | 0.00 | 0.00 | 0.00 | 27 | 1002.0 |
| 20260504181540 | 19 | 311 | 6.4 | 12.9 | 0.00 | 0.00 | 0.00 | 25 | 1002.2 |
| 20260504180038 | 19 | 281 | 9.7 | 17.7 | 0.00 | 0.00 | 0.00 | 26 | 1002.3 |
| 20260504174537 | 19 | 292 | 4.8 | 20.9 | 0.00 | 0.00 | 0.00 | 24 | 1002.5 |
| 20260504173037 | 20 | 317 | 8.0 | 20.9 | 0.00 | 0.00 | 0.00 | 24 | 1002.7 |
| 20260504171534 | 18 | 360 | 4.8 | 29.0 | 0.00 | 0.00 | 0.00 | 25 | 1002.9 |
| 20260504081515 | 7 | 198 | 11.3 | 12.9 | 0.00 | 0.00 | 0.00 | 57 | 1004.7 |
| 20260504044541 | 10 | 161 | 8.0 | 12.9 | 0.00 | 0.00 | 0.00 | 57 | 1006.6 |
| 20260504043046 | 11 | 153 | 6.4 | 8.0 | 0.00 | 0.00 | 0.00 | 52 | 1006.8 |